Year,Month,Day,Hour,Minute,Value (Times are PST for temperature in C)
2015,03,13,00,00,9.90
2015,03,13,00,01,9.90
2015,03,13,00,02,9.90
2015,03,13,00,03,9.90
2015,03,13,00,04,9.90
2015,03,13,00,05,9.90
2015,03,13,00,06,9.90
2015,03,13,00,07,9.90
2015,03,13,00,08,9.90
2015,03,13,00,09,10.00
2015,03,13,00,10,10.00
2015,03,13,00,11,10.00
2015,03,13,00,12,10.00
2015,03,13,00,13,10.10
2015,03,13,00,14,10.10
2015,03,13,00,15,10.10
2015,03,13,00,16,10.10
2015,03,13,00,17,10.10
2015,03,13,00,18,10.10
2015,03,13,00,19,10.10
2015,03,13,00,20,10.20
2015,03,13,00,21,10.20
2015,03,13,00,22,10.20
2015,03,13,00,23,10.20
2015,03,13,00,24,10.20
2015,03,13,00,25,10.20
2015,03,13,00,26,10.20
2015,03,13,00,27,10.20
2015,03,13,00,28,10.20
2015,03,13,00,29,10.20
2015,03,13,00,30,10.20
2015,03,13,00,31,10.30
2015,03,13,00,32,10.30
2015,03,13,00,33,10.30
2015,03,13,00,34,10.30
2015,03,13,00,35,10.30
2015,03,13,00,36,10.30
2015,03,13,00,37,10.30
2015,03,13,00,38,10.40
2015,03,13,00,39,10.40
2015,03,13,00,40,10.40
2015,03,13,00,41,10.40
2015,03,13,00,42,10.50
2015,03,13,00,43,10.50
2015,03,13,00,44,10.60
2015,03,13,00,45,10.60
2015,03,13,00,46,10.60
2015,03,13,00,47,10.60
2015,03,13,00,48,10.60
2015,03,13,00,49,10.60
2015,03,13,00,50,10.60
2015,03,13,00,51,10.70
2015,03,13,00,52,10.70
2015,03,13,00,53,10.60
2015,03,13,00,54,10.60
2015,03,13,00,55,10.60
2015,03,13,00,56,10.60
2015,03,13,00,57,10.60
2015,03,13,00,58,10.60
2015,03,13,00,59,10.60
2015,03,13,01,00,10.60
2015,03,13,01,01,10.60
2015,03,13,01,02,10.60
2015,03,13,01,03,10.50
2015,03,13,01,04,10.50
2015,03,13,01,05,10.50
2015,03,13,01,06,10.50
2015,03,13,01,07,10.40
2015,03,13,01,08,10.40
2015,03,13,01,09,10.40
2015,03,13,01,10,10.40
2015,03,13,01,11,10.40
2015,03,13,01,12,10.30
2015,03,13,01,13,10.30
2015,03,13,01,14,10.30
2015,03,13,01,15,10.30
2015,03,13,01,16,10.30
2015,03,13,01,17,10.20
2015,03,13,01,18,10.20
2015,03,13,01,19,10.20
2015,03,13,01,20,10.20
2015,03,13,01,21,10.10
2015,03,13,01,22,10.10
2015,03,13,01,23,10.10
2015,03,13,01,24,10.10
2015,03,13,01,25,10.10
2015,03,13,01,26,10.00
2015,03,13,01,27,10.00
2015,03,13,01,28,10.00
2015,03,13,01,29,10.00
2015,03,13,01,30,10.00
2015,03,13,01,31,10.00
2015,03,13,01,32,10.00
2015,03,13,01,33,10.00
2015,03,13,01,34,10.00
2015,03,13,01,35,10.10
2015,03,13,01,36,10.10
2015,03,13,01,37,10.10
2015,03,13,01,38,10.10
2015,03,13,01,39,10.20
2015,03,13,01,40,10.20
2015,03,13,01,41,10.20
2015,03,13,01,42,10.20
2015,03,13,01,43,10.20
2015,03,13,01,44,10.20
2015,03,13,01,49,10.10
2015,03,13,01,50,10.10
2015,03,13,01,51,10.10
2015,03,13,01,52,10.00
2015,03,13,01,53,10.00
2015,03,13,01,54,10.00
2015,03,13,01,55,9.90
2015,03,13,01,56,9.90
2015,03,13,01,57,9.90
2015,03,13,01,58,9.90
2015,03,13,01,59,9.80
2015,03,13,02,00,9.80
2015,03,13,02,01,9.80
2015,03,13,02,02,9.70
2015,03,13,02,03,9.70
2015,03,13,02,04,9.70
2015,03,13,02,05,9.60
2015,03,13,02,06,9.60
2015,03,13,02,07,9.60
2015,03,13,02,08,9.60
2015,03,13,02,09,9.60
2015,03,13,02,10,9.50
2015,03,13,02,11,9.50
2015,03,13,02,12,9.40
2015,03,13,02,13,9.40
2015,03,13,02,14,9.40
2015,03,13,02,15,9.30
2015,03,13,02,16,9.30
2015,03,13,02,17,9.30
2015,03,13,02,18,9.30
2015,03,13,02,19,9.20
2015,03,13,02,20,9.20
2015,03,13,02,21,9.20
2015,03,13,02,22,9.20
2015,03,13,02,23,9.10
2015,03,13,02,24,9.10
2015,03,13,02,25,9.10
2015,03,13,02,26,9.10
2015,03,13,02,27,9.00
2015,03,13,02,28,9.00
2015,03,13,02,29,9.00
2015,03,13,02,30,8.90
2015,03,13,02,31,8.90
2015,03,13,02,32,8.90
2015,03,13,02,33,8.90
2015,03,13,02,34,8.90
2015,03,13,02,35,8.90
2015,03,13,02,36,8.90
2015,03,13,02,37,8.90
2015,03,13,02,38,8.90
2015,03,13,02,39,8.90
2015,03,13,02,40,8.90
2015,03,13,02,41,8.90
2015,03,13,02,42,8.90
2015,03,13,02,43,8.80
2015,03,13,02,44,8.80
2015,03,13,02,45,8.80
2015,03,13,02,46,8.80
2015,03,13,02,47,8.80
2015,03,13,02,48,8.80
2015,03,13,02,49,8.80
2015,03,13,02,50,8.80
2015,03,13,02,51,8.80
2015,03,13,02,52,8.80
2015,03,13,02,53,8.80
2015,03,13,02,54,8.70
2015,03,13,02,55,8.70
2015,03,13,02,56,8.70
2015,03,13,02,57,8.70
2015,03,13,02,58,8.70
2015,03,13,02,59,8.70
2015,03,13,03,00,8.70
2015,03,13,03,01,8.70
2015,03,13,03,02,8.70
2015,03,13,03,03,8.70
2015,03,13,03,04,8.70
2015,03,13,03,05,8.70
2015,03,13,03,06,8.70
2015,03,13,03,07,8.70
2015,03,13,03,08,8.60
2015,03,13,03,09,8.60
2015,03,13,03,10,8.60
2015,03,13,03,11,8.60
2015,03,13,03,12,8.60
2015,03,13,03,13,8.60
2015,03,13,03,14,8.60
2015,03,13,03,15,8.60
2015,03,13,03,16,8.50
2015,03,13,03,17,8.50
2015,03,13,03,18,8.50
2015,03,13,03,19,8.50
2015,03,13,03,20,8.40
2015,03,13,03,21,8.40
2015,03,13,03,22,8.40
2015,03,13,03,23,8.40
2015,03,13,03,24,8.40
2015,03,13,03,25,8.30
2015,03,13,03,26,8.30
2015,03,13,03,27,8.30
2015,03,13,03,28,8.30
2015,03,13,03,29,8.30
2015,03,13,03,30,8.30
2015,03,13,03,31,8.30
2015,03,13,03,32,8.20
2015,03,13,03,33,8.20
2015,03,13,03,34,8.20
2015,03,13,03,35,8.20
2015,03,13,03,36,8.20
2015,03,13,03,37,8.20
2015,03,13,03,38,8.20
2015,03,13,03,39,8.10
2015,03,13,03,40,8.10
2015,03,13,03,41,8.10
2015,03,13,03,42,8.10
2015,03,13,03,43,8.00
2015,03,13,03,44,8.00
2015,03,13,03,45,8.00
2015,03,13,03,46,8.00
2015,03,13,03,47,7.90
2015,03,13,03,48,7.90
2015,03,13,03,49,7.90
2015,03,13,03,50,7.90
2015,03,13,03,51,7.90
2015,03,13,03,52,7.80
2015,03,13,03,53,7.80
2015,03,13,03,54,7.80
2015,03,13,03,55,7.80
2015,03,13,03,56,7.80
2015,03,13,03,57,7.80
2015,03,13,03,58,7.80
2015,03,13,03,59,7.70
2015,03,13,04,00,7.70
2015,03,13,04,01,7.70
2015,03,13,04,02,7.70
2015,03,13,04,03,7.70
2015,03,13,04,04,7.60
2015,03,13,04,05,7.60
2015,03,13,04,06,7.60
2015,03,13,04,07,7.60
2015,03,13,04,08,7.60
2015,03,13,04,09,7.60
2015,03,13,04,10,7.60
2015,03,13,04,11,7.60
2015,03,13,04,12,7.60
2015,03,13,04,13,7.60
2015,03,13,04,14,7.60
2015,03,13,04,15,7.60
2015,03,13,04,16,7.60
2015,03,13,04,17,7.60
2015,03,13,04,18,7.60
2015,03,13,04,19,7.50
2015,03,13,04,20,7.50
2015,03,13,04,21,7.50
2015,03,13,04,22,7.50
2015,03,13,04,23,7.50
2015,03,13,04,24,7.50
2015,03,13,04,25,7.50
2015,03,13,04,26,7.40
2015,03,13,04,27,7.40
2015,03,13,04,28,7.40
2015,03,13,04,29,7.40
2015,03,13,04,30,7.40
2015,03,13,04,31,7.40
2015,03,13,04,32,7.40
2015,03,13,04,33,7.40
2015,03,13,04,34,7.40
2015,03,13,04,35,7.40
2015,03,13,04,36,7.40
2015,03,13,04,37,7.40
2015,03,13,04,38,7.30
2015,03,13,04,39,7.30
2015,03,13,04,40,7.30
2015,03,13,04,41,7.30
2015,03,13,04,42,7.30
2015,03,13,04,43,7.30
2015,03,13,04,44,7.30
2015,03,13,04,45,7.30
2015,03,13,04,46,7.30
2015,03,13,04,47,7.30
2015,03,13,04,48,7.30
2015,03,13,04,49,7.30
2015,03,13,04,50,7.30
2015,03,13,04,51,7.30
2015,03,13,04,52,7.30
2015,03,13,04,53,7.30
2015,03,13,04,54,7.30
2015,03,13,04,55,7.20
2015,03,13,04,56,7.20
2015,03,13,04,57,7.20
2015,03,13,04,58,7.20
2015,03,13,04,59,7.20
2015,03,13,05,00,7.20
2015,03,13,05,01,7.20
2015,03,13,05,02,7.20
2015,03,13,05,03,7.20
2015,03,13,05,04,7.20
2015,03,13,05,05,7.20
2015,03,13,05,06,7.20
2015,03,13,05,07,7.20
2015,03,13,05,08,7.20
2015,03,13,05,09,7.20
2015,03,13,05,10,7.20
2015,03,13,05,11,7.20
2015,03,13,05,12,7.20
2015,03,13,05,13,7.20
2015,03,13,05,14,7.20
2015,03,13,05,15,7.20
2015,03,13,05,16,7.20
2015,03,13,05,17,7.20
2015,03,13,05,18,7.20
2015,03,13,05,19,7.20
2015,03,13,05,20,7.20
2015,03,13,05,21,7.20
2015,03,13,05,22,7.20
2015,03,13,05,23,7.20
2015,03,13,05,24,7.20
2015,03,13,05,25,7.20
2015,03,13,05,26,7.20
2015,03,13,05,27,7.20
2015,03,13,05,28,7.20
2015,03,13,05,29,7.20
2015,03,13,05,30,7.20
2015,03,13,05,31,7.20
2015,03,13,05,32,7.20
2015,03,13,05,33,7.20
2015,03,13,05,34,7.20
2015,03,13,05,35,7.20
2015,03,13,05,36,7.20
2015,03,13,05,37,7.20
2015,03,13,05,38,7.30
2015,03,13,05,39,7.30
2015,03,13,05,40,7.30
2015,03,13,05,41,7.30
2015,03,13,05,42,7.30
2015,03,13,05,43,7.30
2015,03,13,05,44,7.30
2015,03,13,05,45,7.30
2015,03,13,05,46,7.30
2015,03,13,05,47,7.30
2015,03,13,05,48,7.30
2015,03,13,05,49,7.30
2015,03,13,05,50,7.30
2015,03,13,05,51,7.30
2015,03,13,05,52,7.30
2015,03,13,05,53,7.30
2015,03,13,05,54,7.30
2015,03,13,05,55,7.30
2015,03,13,05,56,7.30
2015,03,13,05,57,7.30
2015,03,13,05,58,7.30
2015,03,13,05,59,7.30
2015,03,13,06,00,7.30
2015,03,13,06,01,7.30
2015,03,13,06,02,7.30
2015,03,13,06,03,7.30
2015,03,13,06,04,7.30
2015,03,13,06,05,7.30
2015,03,13,06,06,7.30
2015,03,13,06,07,7.30
2015,03,13,06,08,7.30
2015,03,13,06,09,7.30
2015,03,13,06,10,7.30
2015,03,13,06,11,7.30
2015,03,13,06,12,7.30
2015,03,13,06,13,7.30
2015,03,13,06,14,7.30
2015,03,13,06,15,7.30
2015,03,13,06,16,7.30
2015,03,13,06,17,7.30
2015,03,13,06,18,7.30
2015,03,13,06,19,7.30
2015,03,13,06,20,7.30
2015,03,13,06,21,7.30
2015,03,13,06,22,7.30
2015,03,13,06,23,7.30
2015,03,13,06,24,7.30
2015,03,13,06,25,7.30
2015,03,13,06,26,7.30
2015,03,13,06,27,7.30
2015,03,13,06,28,7.30
2015,03,13,06,29,7.30
2015,03,13,06,30,7.30
2015,03,13,06,31,7.30
2015,03,13,06,32,7.30
2015,03,13,06,33,7.30
2015,03,13,06,34,7.30
2015,03,13,06,35,7.30
2015,03,13,06,36,7.30
2015,03,13,06,37,7.40
2015,03,13,06,38,7.40
2015,03,13,06,39,7.40
2015,03,13,06,40,7.40
2015,03,13,06,41,7.40
2015,03,13,06,42,7.40
2015,03,13,06,43,7.40
2015,03,13,06,44,7.40
2015,03,13,06,45,7.40
2015,03,13,06,46,7.40
2015,03,13,06,47,7.40
2015,03,13,06,48,7.40
2015,03,13,06,49,7.40
2015,03,13,06,50,7.40
2015,03,13,06,51,7.40
2015,03,13,06,52,7.40
2015,03,13,06,53,7.40
2015,03,13,06,54,7.40
2015,03,13,06,55,7.40
2015,03,13,06,56,7.40
2015,03,13,06,57,7.40
2015,03,13,06,58,7.40
2015,03,13,06,59,7.40
2015,03,13,07,00,7.40
2015,03,13,07,01,7.40
2015,03,13,07,02,7.40
2015,03,13,07,03,7.40
2015,03,13,07,04,7.40
2015,03,13,07,05,7.40
2015,03,13,07,06,7.40
2015,03,13,07,07,7.30
2015,03,13,07,08,7.30
2015,03,13,07,09,7.30
2015,03,13,07,10,7.30
2015,03,13,07,11,7.30
2015,03,13,07,12,7.30
2015,03,13,07,13,7.30
2015,03,13,07,14,7.30
2015,03,13,07,15,7.30
2015,03,13,07,16,7.30
2015,03,13,07,17,7.20
2015,03,13,07,18,7.20
2015,03,13,07,19,7.20
2015,03,13,07,20,7.20
2015,03,13,07,21,7.20
2015,03,13,07,22,7.30
2015,03,13,07,23,7.30
2015,03,13,07,24,7.30
2015,03,13,07,25,7.30
2015,03,13,07,26,7.30
2015,03,13,07,27,7.30
2015,03,13,07,28,7.30
2015,03,13,07,29,7.30
2015,03,13,07,30,7.30
2015,03,13,07,31,7.30
2015,03,13,07,32,7.40
2015,03,13,07,33,7.40
2015,03,13,07,34,7.40
2015,03,13,07,35,7.40
2015,03,13,07,36,7.40
2015,03,13,07,37,7.40
2015,03,13,07,38,7.40
2015,03,13,07,39,7.40
2015,03,13,07,40,7.40
2015,03,13,07,41,7.40
2015,03,13,07,42,7.40
2015,03,13,07,43,7.40
2015,03,13,07,44,7.30
2015,03,13,07,45,7.30
2015,03,13,07,46,7.30
2015,03,13,07,47,7.20
2015,03,13,07,48,7.20
2015,03,13,07,49,7.20
2015,03,13,07,50,7.20
2015,03,13,07,51,7.20
2015,03,13,07,52,7.20
2015,03,13,07,53,7.20
2015,03,13,07,54,7.20
2015,03,13,07,55,7.10
2015,03,13,07,56,7.10
2015,03,13,07,57,7.10
2015,03,13,07,58,7.10
2015,03,13,07,59,7.10
2015,03,13,08,00,7.10
2015,03,13,08,01,7.00
2015,03,13,08,02,7.00
2015,03,13,08,03,7.00
2015,03,13,08,04,7.00
2015,03,13,08,05,7.00
2015,03,13,08,06,6.90
2015,03,13,08,07,6.90
2015,03,13,08,08,6.90
2015,03,13,08,09,6.90
2015,03,13,08,10,6.90
2015,03,13,08,11,6.90
2015,03,13,08,12,6.90
2015,03,13,08,13,6.90
2015,03,13,08,14,6.90
2015,03,13,08,15,6.90
2015,03,13,08,16,6.90
2015,03,13,08,17,6.90
2015,03,13,08,18,6.90
2015,03,13,08,19,6.90
2015,03,13,08,20,6.90
2015,03,13,08,21,6.90
2015,03,13,08,22,6.90
2015,03,13,08,23,6.90
2015,03,13,08,24,6.90
2015,03,13,08,25,6.90
2015,03,13,08,26,6.90
2015,03,13,08,27,6.90
2015,03,13,08,28,6.90
2015,03,13,08,29,6.90
2015,03,13,08,30,6.90
2015,03,13,08,31,6.90
2015,03,13,08,32,6.90
2015,03,13,08,33,6.90
2015,03,13,08,34,7.00
2015,03,13,08,35,7.00
2015,03,13,08,36,7.00
2015,03,13,08,37,7.00
2015,03,13,08,38,7.00
2015,03,13,08,39,7.10
2015,03,13,08,40,7.10
2015,03,13,08,41,7.10
2015,03,13,08,42,7.10
2015,03,13,08,43,7.10
2015,03,13,08,44,7.10
2015,03,13,08,45,7.20
2015,03,13,08,46,7.20
2015,03,13,08,47,7.20
2015,03,13,08,48,7.20
2015,03,13,08,49,7.20
2015,03,13,08,50,7.20
2015,03,13,08,51,7.20
2015,03,13,08,52,7.20
2015,03,13,08,53,7.20
2015,03,13,08,54,7.20
2015,03,13,08,55,7.20
2015,03,13,08,56,7.20
2015,03,13,08,57,7.20
2015,03,13,08,58,7.30
2015,03,13,08,59,7.30
2015,03,13,09,00,7.30
2015,03,13,09,01,7.30
2015,03,13,09,02,7.30
2015,03,13,09,03,7.40
2015,03,13,09,04,7.40
2015,03,13,09,05,7.40
2015,03,13,09,06,7.50
2015,03,13,09,07,7.50
2015,03,13,09,08,7.60
2015,03,13,09,09,7.60
2015,03,13,09,10,7.60
2015,03,13,09,11,7.60
2015,03,13,09,12,7.60
2015,03,13,09,13,7.70
2015,03,13,09,14,7.70
2015,03,13,09,15,7.70
2015,03,13,09,16,7.70
2015,03,13,09,17,7.70
2015,03,13,09,18,7.70
2015,03,13,09,19,7.70
2015,03,13,09,20,7.80
2015,03,13,09,21,7.80
2015,03,13,09,22,7.80
2015,03,13,09,23,7.80
2015,03,13,09,24,7.80
2015,03,13,09,25,7.80
2015,03,13,09,26,7.80
2015,03,13,09,27,7.80
2015,03,13,09,28,7.80
2015,03,13,09,29,7.80
2015,03,13,09,30,7.90
2015,03,13,09,31,7.90
2015,03,13,09,32,7.90
2015,03,13,09,33,7.90
2015,03,13,09,34,7.90
2015,03,13,09,35,7.90
2015,03,13,09,36,7.90
2015,03,13,09,37,7.90
2015,03,13,09,38,7.90
2015,03,13,09,39,7.90
2015,03,13,09,40,7.90
2015,03,13,09,41,7.90
2015,03,13,09,42,8.00
2015,03,13,09,43,8.00
2015,03,13,09,44,8.00
2015,03,13,09,45,8.00
2015,03,13,09,46,8.00
2015,03,13,09,47,8.00
2015,03,13,09,48,8.10
2015,03,13,09,49,8.10
2015,03,13,09,50,8.10
2015,03,13,09,51,8.10
2015,03,13,09,52,8.10
2015,03,13,09,53,8.20
2015,03,13,09,54,8.20
2015,03,13,09,55,8.20
2015,03,13,09,56,8.20
2015,03,13,09,57,8.30
2015,03,13,09,58,8.30
2015,03,13,09,59,8.30
2015,03,13,10,00,8.40
2015,03,13,10,01,8.40
2015,03,13,10,02,8.40
2015,03,13,10,03,8.50
2015,03,13,10,04,8.50
2015,03,13,10,05,8.50
2015,03,13,10,06,8.50
2015,03,13,10,07,8.60
2015,03,13,10,08,8.60
2015,03,13,10,09,8.60
2015,03,13,10,10,8.60
2015,03,13,10,11,8.70
2015,03,13,10,12,8.70
2015,03,13,10,13,8.70
2015,03,13,10,14,8.80
2015,03,13,10,15,8.80
2015,03,13,10,16,8.80
2015,03,13,10,17,8.80
2015,03,13,10,18,8.90
2015,03,13,10,19,8.90
2015,03,13,10,20,8.90
2015,03,13,10,21,8.90
2015,03,13,10,22,9.00
2015,03,13,10,23,9.10
2015,03,13,10,24,9.10
2015,03,13,10,25,9.20
2015,03,13,10,26,9.30
2015,03,13,10,27,9.30
2015,03,13,10,28,9.40
2015,03,13,10,29,9.40
2015,03,13,10,30,9.50
2015,03,13,10,31,9.60
2015,03,13,10,32,9.60
2015,03,13,10,33,9.60
2015,03,13,10,34,9.60
2015,03,13,10,35,9.70
2015,03,13,10,36,9.70
2015,03,13,10,37,9.80
2015,03,13,10,38,9.80
2015,03,13,10,39,9.90
2015,03,13,10,40,9.90
2015,03,13,10,41,9.90
2015,03,13,10,42,10.00
2015,03,13,10,43,10.00
2015,03,13,10,44,10.10
2015,03,13,10,45,10.10
2015,03,13,10,46,10.20
2015,03,13,10,47,10.20
2015,03,13,10,48,10.20
2015,03,13,10,49,10.20
2015,03,13,10,50,10.30
2015,03,13,10,51,10.30
2015,03,13,10,52,10.40
2015,03,13,10,53,10.40
2015,03,13,10,54,10.50
2015,03,13,10,55,10.60
2015,03,13,10,56,10.80
2015,03,13,10,57,10.90
2015,03,13,10,58,11.00
2015,03,13,10,59,11.10
2015,03,13,11,00,11.20
2015,03,13,11,01,11.40
2015,03,13,11,02,11.50
2015,03,13,11,03,11.60
2015,03,13,11,04,11.60
2015,03,13,11,05,11.70
2015,03,13,11,06,11.70
2015,03,13,11,07,11.70
2015,03,13,11,08,11.70
2015,03,13,11,09,11.70
2015,03,13,11,10,11.80
2015,03,13,11,11,11.80
2015,03,13,11,12,11.80
2015,03,13,11,13,11.80
2015,03,13,11,14,11.80
2015,03,13,11,15,11.90
2015,03,13,11,16,12.00
2015,03,13,11,17,12.10
2015,03,13,11,18,12.20
2015,03,13,11,19,12.30
2015,03,13,11,20,12.50
2015,03,13,11,21,12.60
2015,03,13,11,22,12.70
2015,03,13,11,23,12.80
2015,03,13,11,24,12.90
2015,03,13,11,25,13.00
2015,03,13,11,26,13.10
2015,03,13,11,27,13.20
2015,03,13,11,28,13.30
2015,03,13,11,29,13.30
2015,03,13,11,30,13.30
2015,03,13,11,31,13.30
2015,03,13,11,32,13.20
2015,03,13,11,33,13.20
2015,03,13,11,34,13.20
2015,03,13,11,35,13.10
2015,03,13,11,36,13.00
2015,03,13,11,37,13.00
2015,03,13,11,38,12.80
2015,03,13,11,39,12.80
2015,03,13,11,40,12.80
2015,03,13,11,41,12.80
2015,03,13,11,42,12.80
2015,03,13,11,43,12.80
2015,03,13,11,44,12.80
2015,03,13,11,45,12.80
2015,03,13,11,46,12.80
2015,03,13,11,47,12.90
2015,03,13,11,48,12.90
2015,03,13,11,49,13.00
2015,03,13,11,50,13.00
2015,03,13,11,51,13.00
2015,03,13,11,52,13.10
2015,03,13,11,53,13.10
2015,03,13,11,54,13.10
2015,03,13,11,55,13.20
2015,03,13,11,56,13.20
2015,03,13,11,57,13.20
2015,03,13,11,58,13.20
2015,03,13,11,59,13.20
2015,03,13,12,00,13.20
2015,03,13,12,01,13.20
2015,03,13,12,02,13.30
2015,03,13,12,03,13.30
2015,03,13,12,04,13.30
2015,03,13,12,05,13.30
2015,03,13,12,06,13.30
2015,03,13,12,07,13.20
2015,03,13,12,08,13.10
2015,03,13,12,09,13.00
2015,03,13,12,10,13.00
2015,03,13,12,11,12.90
2015,03,13,12,12,12.80
2015,03,13,12,13,12.80
2015,03,13,12,14,12.70
2015,03,13,12,15,12.70
2015,03,13,12,16,12.70
2015,03,13,12,17,12.80
2015,03,13,12,18,12.80
2015,03,13,12,19,12.80
2015,03,13,12,20,12.90
2015,03,13,12,21,12.90
2015,03,13,12,22,12.90
2015,03,13,12,23,12.90
2015,03,13,12,24,12.90
2015,03,13,12,25,13.00
2015,03,13,12,26,13.10
2015,03,13,12,27,13.10
2015,03,13,12,28,13.20
2015,03,13,12,29,13.30
2015,03,13,12,30,13.40
2015,03,13,12,31,13.50
2015,03,13,12,32,13.60
2015,03,13,12,33,13.70
2015,03,13,12,34,13.70
2015,03,13,12,35,13.80
2015,03,13,12,36,13.90
2015,03,13,12,37,14.00
2015,03,13,12,38,14.10
2015,03,13,12,39,14.20
2015,03,13,12,40,14.30
2015,03,13,12,41,14.40
2015,03,13,12,42,14.50
2015,03,13,12,43,14.50
2015,03,13,12,44,14.60
2015,03,13,12,45,14.60
2015,03,13,12,46,14.70
2015,03,13,12,47,14.70
2015,03,13,12,48,14.80
2015,03,13,12,49,14.90
2015,03,13,12,50,14.90
2015,03,13,12,51,15.00
2015,03,13,12,52,15.00
2015,03,13,12,53,15.00
2015,03,13,12,54,15.00
2015,03,13,12,55,15.00
2015,03,13,12,56,15.00
2015,03,13,12,57,15.00
2015,03,13,12,58,15.00
2015,03,13,12,59,15.00
2015,03,13,13,00,15.00
2015,03,13,13,01,15.00
2015,03,13,13,02,15.00
2015,03,13,13,03,15.00
2015,03,13,13,04,15.00
2015,03,13,13,05,15.00
2015,03,13,13,06,15.00
2015,03,13,13,07,15.00
2015,03,13,13,08,15.00
2015,03,13,13,09,15.00
2015,03,13,13,10,15.00
2015,03,13,13,11,15.00
2015,03,13,13,12,15.00
2015,03,13,13,13,15.00
2015,03,13,13,14,15.00
2015,03,13,13,15,15.00
2015,03,13,13,16,15.00
2015,03,13,13,17,15.00
2015,03,13,13,18,14.90
2015,03,13,13,19,14.80
2015,03,13,13,20,14.70
2015,03,13,13,21,14.60
2015,03,13,13,22,14.60
2015,03,13,13,23,14.60
2015,03,13,13,24,14.60
2015,03,13,13,25,14.60
2015,03,13,13,26,14.60
2015,03,13,13,27,14.70
2015,03,13,13,28,14.70
2015,03,13,13,29,14.70
2015,03,13,13,30,14.70
2015,03,13,13,31,14.70
2015,03,13,13,32,14.70
2015,03,13,13,33,14.80
2015,03,13,13,34,14.90
2015,03,13,13,35,15.00
2015,03,13,13,36,15.00
2015,03,13,13,37,15.00
2015,03,13,13,38,15.00
2015,03,13,13,39,15.00
2015,03,13,13,40,15.00
2015,03,13,13,41,15.00
2015,03,13,13,42,15.00
2015,03,13,13,43,15.00
2015,03,13,13,44,15.00
2015,03,13,13,45,15.00
2015,03,13,13,46,15.00
2015,03,13,13,47,15.10
2015,03,13,13,48,15.20
2015,03,13,13,49,15.20
2015,03,13,13,50,15.30
2015,03,13,13,51,15.30
2015,03,13,13,52,15.30
2015,03,13,13,53,15.30
2015,03,13,13,54,15.30
2015,03,13,13,55,15.30
2015,03,13,13,56,15.30
2015,03,13,13,57,15.20
2015,03,13,13,58,15.30
2015,03,13,13,59,15.30
2015,03,13,14,00,15.30
2015,03,13,14,01,15.40
2015,03,13,14,02,15.40
2015,03,13,14,03,15.40
2015,03,13,14,04,15.40
2015,03,13,14,05,15.40
2015,03,13,14,06,15.40
2015,03,13,14,07,15.40
2015,03,13,14,08,15.40
2015,03,13,14,09,15.40
2015,03,13,14,10,15.40
2015,03,13,14,11,15.40
2015,03,13,14,12,15.40
2015,03,13,14,13,15.40
2015,03,13,14,14,15.50
2015,03,13,14,15,15.50
2015,03,13,14,16,15.50
2015,03,13,14,17,15.50
2015,03,13,14,18,15.50
2015,03,13,14,19,15.50
2015,03,13,14,20,15.40
2015,03,13,14,21,15.30
2015,03,13,14,22,15.30
2015,03,13,14,23,15.30
2015,03,13,14,24,15.40
2015,03,13,14,25,15.40
2015,03,13,14,26,15.40
2015,03,13,14,27,15.40
2015,03,13,14,28,15.40
2015,03,13,14,29,15.40
2015,03,13,14,30,15.50
2015,03,13,14,31,15.50
2015,03,13,14,32,15.50
2015,03,13,14,33,15.40
2015,03,13,14,34,15.40
2015,03,13,14,35,15.30
2015,03,13,14,36,15.00
2015,03,13,14,37,15.00
2015,03,13,14,38,15.00
2015,03,13,14,39,14.80
2015,03,13,14,40,14.50
2015,03,13,14,41,14.30
2015,03,13,14,42,14.10
2015,03,13,14,43,14.00
2015,03,13,14,44,13.90
2015,03,13,14,45,13.80
2015,03,13,14,46,13.70
2015,03,13,14,47,13.60
2015,03,13,14,48,13.50
2015,03,13,14,49,13.40
2015,03,13,14,50,13.30
2015,03,13,14,51,13.30
2015,03,13,14,52,13.20
2015,03,13,14,53,13.20
2015,03,13,14,54,13.20
2015,03,13,14,55,13.20
2015,03,13,14,56,13.10
2015,03,13,14,57,13.10
2015,03,13,14,58,13.10
2015,03,13,14,59,13.00
2015,03,13,15,00,13.00
2015,03,13,15,01,12.90
2015,03,13,15,02,12.80
2015,03,13,15,03,12.70
2015,03,13,15,04,12.60
2015,03,13,15,05,12.50
2015,03,13,15,06,12.40
2015,03,13,15,07,12.40
2015,03,13,15,08,12.30
2015,03,13,15,09,12.20
2015,03,13,15,10,12.20
2015,03,13,15,11,12.20
2015,03,13,15,12,12.20
2015,03,13,15,13,12.10
2015,03,13,15,14,12.00
2015,03,13,15,15,12.00
2015,03,13,15,16,11.90
2015,03,13,15,17,11.90
2015,03,13,15,18,11.90
2015,03,13,15,19,11.80
2015,03,13,15,20,11.80
2015,03,13,15,21,11.80
2015,03,13,15,22,11.80
2015,03,13,15,23,11.80
2015,03,13,15,24,11.80
2015,03,13,15,25,11.80
2015,03,13,15,26,11.80
2015,03,13,15,27,11.80
2015,03,13,15,28,11.80
2015,03,13,15,29,11.80
2015,03,13,15,30,11.80
2015,03,13,15,31,11.90
2015,03,13,15,32,11.90
2015,03,13,15,33,11.90
2015,03,13,15,34,11.90
2015,03,13,15,35,11.90
2015,03,13,15,36,11.90
2015,03,13,15,37,12.00
2015,03,13,15,38,12.00
2015,03,13,15,39,12.00
2015,03,13,15,40,12.00
2015,03,13,15,41,12.00
2015,03,13,15,42,11.90
2015,03,13,15,43,11.90
2015,03,13,15,44,11.80
2015,03,13,15,45,11.80
2015,03,13,15,46,11.70
2015,03,13,15,47,11.70
2015,03,13,15,48,11.70
2015,03,13,15,49,11.60
2015,03,13,15,50,11.60
2015,03,13,15,51,11.60
2015,03,13,15,52,11.60
2015,03,13,15,53,11.60
2015,03,13,15,54,11.60
2015,03,13,15,55,11.60
2015,03,13,15,56,11.60
2015,03,13,15,57,11.60
2015,03,13,15,58,11.60
2015,03,13,15,59,11.70
2015,03,13,16,00,11.70
2015,03,13,16,01,11.70
2015,03,13,16,02,11.70
2015,03,13,16,03,11.80
2015,03,13,16,04,11.80
2015,03,13,16,05,11.80
2015,03,13,16,06,11.80
2015,03,13,16,07,11.80
2015,03,13,16,08,11.90
2015,03,13,16,09,11.90
2015,03,13,16,10,11.90
2015,03,13,16,11,11.90
2015,03,13,16,12,12.00
2015,03,13,16,13,12.00
2015,03,13,16,14,12.00
2015,03,13,16,15,12.10
2015,03,13,16,16,12.10
2015,03,13,16,17,12.10
2015,03,13,16,18,12.20
2015,03,13,16,19,12.30
2015,03,13,16,20,12.30
2015,03,13,16,21,12.30
2015,03,13,16,22,12.40
2015,03,13,16,23,12.40
2015,03,13,16,24,12.40
2015,03,13,16,25,12.40
2015,03,13,16,26,12.50
2015,03,13,16,27,12.50
2015,03,13,16,28,12.50
2015,03,13,16,29,12.50
2015,03,13,16,30,12.60
2015,03,13,16,31,12.60
2015,03,13,16,32,12.60
2015,03,13,16,33,12.60
2015,03,13,16,34,12.60
2015,03,13,16,35,12.60
2015,03,13,16,36,12.60
2015,03,13,16,37,12.60
2015,03,13,16,38,12.50
2015,03,13,16,39,12.50
2015,03,13,16,40,12.50
2015,03,13,16,41,12.50
2015,03,13,16,42,12.50
2015,03,13,16,43,12.50
2015,03,13,16,44,12.50
2015,03,13,16,45,12.50
2015,03,13,16,46,12.50
2015,03,13,16,47,12.50
2015,03,13,16,48,12.50
2015,03,13,16,49,12.50
2015,03,13,16,50,12.50
2015,03,13,16,51,12.40
2015,03,13,16,52,12.50
2015,03,13,16,53,12.50
2015,03,13,16,54,12.50
2015,03,13,16,55,12.50
2015,03,13,16,56,12.60
2015,03,13,16,57,12.60
2015,03,13,16,58,12.60
2015,03,13,16,59,12.70
2015,03,13,17,00,12.70
2015,03,13,17,01,12.70
2015,03,13,17,02,12.80
2015,03,13,17,03,12.80
2015,03,13,17,04,12.90
2015,03,13,17,05,12.90
2015,03,13,17,06,12.90
2015,03,13,17,07,12.90
2015,03,13,17,08,12.90
2015,03,13,17,09,12.90
2015,03,13,17,10,12.90
2015,03,13,17,11,12.90
2015,03,13,17,12,12.90
2015,03,13,17,13,12.90
2015,03,13,17,14,12.90
2015,03,13,17,15,12.90
2015,03,13,17,16,12.90
2015,03,13,17,17,12.80
2015,03,13,17,18,12.80
2015,03,13,17,19,12.80
2015,03,13,17,20,12.80
2015,03,13,17,21,12.70
2015,03,13,17,22,12.70
2015,03,13,17,23,12.70
2015,03,13,17,24,12.70
2015,03,13,17,25,12.60
2015,03,13,17,26,12.60
2015,03,13,17,27,12.60
2015,03,13,17,28,12.60
2015,03,13,17,29,12.50
2015,03,13,17,30,12.50
2015,03,13,17,31,12.50
2015,03,13,17,32,12.40
2015,03,13,17,33,12.40
2015,03,13,17,34,12.40
2015,03,13,17,35,12.40
2015,03,13,17,36,12.40
2015,03,13,17,37,12.40
2015,03,13,17,38,12.30
2015,03,13,17,39,12.30
2015,03,13,17,40,12.30
2015,03,13,17,41,12.30
2015,03,13,17,42,12.30
2015,03,13,17,43,12.30
2015,03,13,17,44,12.30
2015,03,13,17,45,12.30
2015,03,13,17,46,12.30